(751) Faina
ephemeris date magn radius delta ra dec elong phase
Today25 Aug 202614.42.802 AU3.782 AU10h48m+19°45'12.2°4.4°
Opposition12 Apr 202713.32.940 AU1.977 AU13h50m+09°45'160.2°6.6°
(751) Faina - 2026-08-25
astro.vanbuitenen.nl


 
-1 year
-1 month
-1 day
Now
+1 day
+1 month
+1 year

The interactive orbit chart above shows the body's path through the solar system and its position at the given date. Green and blue lines are shown perpendicular to the ecliptic plane: Green if the path is above the ecliptic plane, blue if it is below. (Left-click and drag to rotate the view; Right-click and drag to move the view; Use scroll wheel to zoom in our out.)

The orbital elements of Faina are:

            e (Eccentricity)                : 0.1519564
            a (Semimajor axis)              : 2.5518239
            i (Inclination)                 : 15.58983
            Ω (Longitude of ascending node) : 78.78980
            ω (Argument of perihelion)      : 302.89022
            M (Mean anomaly)                : 104.81098
            Epoch                           : 2026 Jun 09

            L (Longitude of perihelion)     : 22.66670
            B (Latitude of perihelion)      : -13.04239
            P (Orbital period in years)     : 4.08            
        

The light curve chart below shows the estimated development of the minor planet's magnitude.


The all-sky chart below shows the path of the minor planet over the same period as the light curve. The current position is marked yellow.





The following chart shows the path of the minor planet in the next few days. The field of view is optimized for (~10x50) binoculars and finderscopes.




Ephemerides:
Date       Time       RA (2000)    DEC (2000)    delta   radius  elong  phase   PA    magn
2026-08-25 00:00 UT   10 48 49.8   +19 45 07     3.782    2.802   12.2    4.4    45   14.4 
2026-08-25 23:28 UT   10 50 23.4   +19 36 17     3.783    2.803   12.0    4.3    43   14.4 
2026-08-26 00:00 UT   10 50 25.5   +19 36 05     3.783    2.803   12.0    4.3    43   14.4 
2026-08-27 00:00 UT   10 52 01.0   +19 27 04     3.785    2.804   11.8    4.2    40   14.4 
2026-08-28 00:00 UT   10 53 36.4   +19 18 02     3.787    2.805   11.7    4.2    37   14.4 
2026-08-29 00:00 UT   10 55 11.6   +19 08 59     3.788    2.806   11.6    4.1    35   14.4 
2026-08-30 00:00 UT   10 56 46.8   +18 59 57     3.790    2.807   11.5    4.1    32   14.4 
2026-08-31 00:00 UT   10 58 21.8   +18 50 54     3.791    2.808   11.4    4.1    29   14.4 
2026-09-01 00:00 UT   10 59 56.7   +18 41 52     3.792    2.809   11.4    4.1    27   14.4 
2026-09-02 00:00 UT   11 01 31.5   +18 32 49     3.793    2.811   11.3    4.0    24   14.4 
2026-09-03 00:00 UT   11 03 06.1   +18 23 46     3.794    2.812   11.4    4.1    21   14.4 
2026-09-04 00:00 UT   11 04 40.6   +18 14 43     3.794    2.813   11.4    4.1    18   14.4 
2026-09-05 00:00 UT   11 06 15.1   +18 05 40     3.795    2.814   11.5    4.1    16   14.4 
2026-09-06 00:00 UT   11 07 49.3   +17 56 38     3.795    2.815   11.6    4.1    13   14.4 
2026-09-07 00:00 UT   11 09 23.5   +17 47 35     3.796    2.816   11.7    4.2    10   14.4 
2026-09-08 00:00 UT   11 10 57.5   +17 38 33     3.796    2.817   11.8    4.2     8   14.5 
2026-09-09 00:00 UT   11 12 31.4   +17 29 31     3.796    2.818   12.0    4.3     5   14.5 
2026-09-10 00:00 UT   11 14 05.2   +17 20 29     3.796    2.819   12.2    4.3     2   14.5 
2026-09-11 00:00 UT   11 15 38.8   +17 11 28     3.795    2.820   12.4    4.4     0   14.5 
2026-09-12 00:00 UT   11 17 12.3   +17 02 27     3.795    2.821   12.7    4.5   358   14.5 
2026-09-13 00:00 UT   11 18 45.7   +16 53 27     3.794    2.822   12.9    4.6   356   14.5 
2026-09-14 00:00 UT   11 20 18.9   +16 44 28     3.794    2.823   13.2    4.7   353   14.5 
2026-09-15 00:00 UT   11 21 52.0   +16 35 29     3.793    2.825   13.5    4.8   351   14.5 


    Terminology:
            
    delta:  distance between minor planet and earth in AU
    radius: distance between minor planet and sun in AU
    magn:   magnitude (brightness) estimate    
    ra:     right ascension in hours (24h = 360deg)
    dec:    declination in degrees
    elong:  elongation in degrees (angle sun-earth-minor planet)    
    phase:  phase angle in degrees (angle sun-minor planet-earth)        
    AU:     Astronomical Unit (mean distance between earth and sun: 149597870.7 km
    

Orbital elements provided by the MPC (Minor Planet Center).
Calculations by a modified version of AAPlus, a C# implementation of the AA+ project by PJ Naughter from the algorithms presented in the book "Astronomical Algorithms" by Jean Meeus.
NGC2000 dso catalog and star labels from VizieR as provided by the Strasbourg astronomical Data Center.
Tycho2 catalog from the ESO archive.